Regional Weather Roundup
Issued by NWS Cleveland, OH

Home | Current Version | Previous Version | Text Only | Print | Product List | Glossary Off
Versions: 1 2 3 4 5 6 7 8 9 10 11 12 13 14 15 16 17 18 19 20 21 22 23 24 25 26 27 28 29 30 31 32 33 34 35 36 37 38 39 40 41 42 43 44 45 46 47 48 49 50

000
ASUS41 KCLE 270110
RWRCLE
OHIO REGIONAL WEATHER ROUNDUP
NATIONAL WEATHER SERVICE WILMINGTON, OH
900 PM EDT THU MAY 26 2016

NOTE: "FAIR" INDICATES FEW OR NO CLOUDS BELOW 12,000 FEET WITH NO
SIGNIFICANT WEATHER AND/OR OBSTRUCTIONS TO VISIBILITY.

OHZ001>008-015>018-024>027-034-035-043-044-270200-
   NORTHWEST OHIO

CITY           SKY/WX    TMP DP  RH WIND       PRES   REMARKS
DEFIANCE       FAIR      79  63  57 S8        29.90R
FINDLAY        FAIR      78  63  59 S13       29.90F
TOLEDO EXPRESS FAIR      79  64  60 S6        29.88F
TOLEDO EXEC    FAIR      79  65  62 S9        29.90S
LIMA           FAIR      76  65  68 S14       29.93S
$$

OHZ009>014-019>023-028>033-038-089-270200-
   NORTHEAST OHIO

CITY           SKY/WX    TMP DP  RH WIND       PRES   REMARKS
CLE-HOPKINS    MOCLDY    80  64  58 S10       29.96S
CLE-LAKEFRONT  FAIR      81  63  54 S12       29.92S
CUY CO. ARPT   CLOUDY    79  66  65 S12       29.95S
LORAIN-ELYRIA  FAIR      76  64  66 SW8       29.94F
ASHTABULA      FAIR      75  63  66 SE5       29.98R
AKRON-CANTON   FAIR      75  64  68 SW7       29.99S
WOOSTER        FAIR      74  65  73 S9        29.98F
MANSFIELD      FAIR      75  65  70 S13       29.98S
YOUNGSTOWN     MOCLDY    74  62  66 S5        30.00R
$$

OHZ042-051>053-060>062-070>072-077>081-270200-
  SOUTHWEST OHIO

CITY           SKY/WX    TMP DP  RH WIND       PRES   REMARKS
CINC-COVINGTON CLOUDY    68  65  90 S10       29.98S
CINC-LUNKEN    FAIR      66  66 100 S3        29.98S
HAMILTON       FAIR      71  65  81 S6        29.97S
DAYTON         MOCLDY    71  61  70 S10       29.97R
WRIGHT-PAT AFB MOCLDY    72  64  74 S8        29.96R
DAYTON GENERAL FAIR      70  62  76 S10       29.96S
WILMINGTON     FAIR      68  64  87 S7        29.98F
$$

OHZ036-037-039>041-045>050-054>059-063>069-073>076-082>088-270200-
  CENTRAL AND SOUTHEAST OHIO

CITY           SKY/WX    TMP DP  RH WIND       PRES   REMARKS
COLUMBUS       CLOUDY    75  66  73 S8        29.97F
OSU AIRPORT    FAIR      76  66  71 S13       29.96F
BOLTON FIELD   FAIR      73  67  81 S9        29.98S
RICKENBACK AFB FAIR      74  66  77 S10       29.97F
NEWARK         MOCLDY    76  66  71 SE7       29.98S
MARION         MOCLDY    76  66  71 S12       29.95F
LANCASTER      FAIR      74  66  76 S7        29.99F
ZANESVILLE     FAIR      74  65  73 S6        30.00F
NEW PHILLY     MOCLDY    77  65  66 VRB3      30.00F
$$




USA.gov is the U.S. government's official web portal to all federal, state and local government web resources and services.